CAPE
273 623 608 178 105 269 318 100 108 150 137 192 243 202 237 236 182 177 595 426 452 936 1507 1996 2204 1852 1496 1570 1490 1581 1456 1494 1872 1830 1681 1468 1567 1726 1920 1899 1882 1830 1786 2022 2424 2228 2156 2309 2673
600 910 526 47 16 28 93 303 74 343 236 150 256 240 222 333 619 571 508 259 426 835 1313 1679 2226 2227 1789 1632 1848 1877 1376 1285 1324 1441 1402 1431 1401 1326 1663 1983 1788 1716 1642 1658 1899 1953 2053 2135 2529
260 668 753 172 17 18 110 550 157 189 251 125 206 195 239 463 557 487 398 283 385 534 1039 1563 2482 2325 1688 1645 1736 2281 1903 1592 1480 1423 1264 1376 1349 1216 1301 1650 1804 1783 1817 1769 1661 1773 1702 2039 2070
344 591 1019 446 151 69 407 437 609 360 500 491 279 144 246 380 399 564 479 460 376 609 1104 2119 2672 1683 1786 1990 1643 1585 1530 1519 1439 1390 1456 1275 1302 1263 1167 1526 1738 1708 1555 1454 1520 1587 1816 1853 1845
987 257 257 408 460 392 204 655 610 475 167 69 152 205 212 240 488 514 574 578 537 740 992 1405 2651 2662 2401 1681 2190 1770 1476 1509 1479 1535 1299 1250 1454 1264 1316 1604 1952 1774 1589 1474 1442 1501 1436 1654 1726
789 282 146 241 493 584 771 701 476 488 393 235 254 207 208 441 515 704 737 551 749 820 964 1414 2274 2619 2460 1689 1836 1876 1762 1815 1596 1391 1324 1355 1325 1415 1429 1745 1753 1392 1362 1274 1077 1335 1501 1603 1575
186 228 268 280 334 546 741 917 551 181 609 531 118 173 135 326 570 653 592 533 812 1158 1228 1114 1052 1138 1436 2127 1491 1722 1640 1485 1383 1313 1338 1406 1514 1442 1668 1654 1515 1338 1267 1227 1310 1369 1619 1706 1726
219 202 309 444 389 173 254 986 254 563 700 274 280 145 73 207 240 224 243 154 684 1026 1163 1226 1150 1091 1208 1377 1747 1448 1165 1200 1008 983 1009 1299 1626 1597 1634 1942 1604 1298 1011 1197 1191 1318 1376 1465 1672
340 55 164 160 175 209 362 704 744 698 377 456 28 316 346 197 209 216 293 75 328 872 1015 1069 1069 1122 894 660 398 266 751 797 752 944 1135 1344 1209 1495 1301 1310 1289 1096 1059 1328 1296 1448 1509 1665 1726
30 27 28 201 168 142 658 721 621 377 419 417 146 251 291 256 283 261 266 159 283 496 780 780 734 216 113 110 110 190 154 94 71 68 606 564 866 1023 1130 1116 1131 1060 1095 1072 1141 1642 1756 1664 1319
2 15 35 30 148 328 475 905 869 342 312 204 330 310 361 277 353 308 282 300 273 292 639 599 368 2 1 32 126 53 146 113 88 93 93 276 474 551 440 697 553 412 463 726 964 1220 1496 1374 1229
0 0 38 46 63 647 525 946 808 588 311 353 120 325 325 276 395 433 401 415 424 379 449 529 345 92 0 17 204 51 0 31 7 37 122 413 331 247 265 146 228 59 108 176 641 601 605 808 303
0 0 0 18 0 128 82 567 695 944 761 376 321 470 474 368 431 549 576 584 574 554 452 443 512 520 81 196 240 77 0 0 47 73 158 569 259 18 64 23 30 1 38 167 489 730 649 393 128
0 0 2 3 2 26 161 296 419 937 623 616 368 566 492 492 513 582 646 653 661 647 567 555 392 768 602 365 347 126 11 0 1 170 291 461 249 133 193 78 0 15 64 278 434 762 742 97 376
0 0 0 1 0 17 164 158 274 745 670 789 741 626 611 594 598 548 640 773 876 863 792 658 582 811 704 347 499 241 134 82 109 91 249 113 258 295 48 0 59 167 243 329 476 776 752 620 643
0 0 0 0 0 0 0 0 282 716 746 869 881 777 692 718 677 649 642 805 909 996 929 766 876 842 747 417 492 561 478 309 285 172 85 187 449 309 182 36 115 308 547 670 768 892 981 996 858
0 0 0 0 0 0 0 0 136 674 722 874 1011 972 942 813 746 722 711 806 894 940 1065 1063 1222 980 894 662 605 554 687 467 335 228 228 432 562 617 302 352 214 244 382 569 1063 967 667 468 606
0 1 0 0 0 0 0 0 7 211 481 530 661 943 751 654 727 743 836 899 931 972 1075 1253 1323 1079 841 766 592 579 721 809 517 401 218 646 628 701 541 368 283 276 372 531 941 1331 744 564 425
0 0 0 0 0 0 0 0 0 194 107 325 545 677 680 677 755 865 940 942 963 1052 974 1120 1225 1002 773 850 820 952 845 785 601 674 665 760 594 818 614 557 192 140 388 663 1084 1085 428 475 301
0 0 0 0 0 0 0 0 0 80 123 185 603 649 704 720 636 862 892 836 896 929 882 979 1069 1013 1073 996 802 843 793 837 679 639 599 752 546 745 615 567 5 209 507 705 992 1034 844 609 578
0 0 0 0 0 0 0 0 0 0 34 120 461 627 676 707 654 630 725 847 818 848 899 1043 1061 1117 1150 1001 919 801 870 745 759 541 506 826 516 918 711 455 54 178 452 823 1072 1101 758 761 465
0 0 0 0 0 0 0 0 0 0 0 16 73 575 659 697 659 635 673 675 817 859 931 896 898 954 999 971 878 828 724 758 759 615 593 796 822 990 828 719 418 155 645 463 716 995 1139 1042 831
0 0 0 0 0 0 0 0 0 0 0 0 0 404 629 682 709 716 696 711 743 846 1144 1005 791 881 980 975 922 805 798 798 882 750 627 759 751 1038 829 834 465 81 600 2 453 450 1325 1107 726
0 0 0 0 0 0 0 0 0 0 1 0 5 8 463 745 817 852 822 803 791 769 845 1291 1008 942 1041 1007 991 845 686 854 811 787 650 540 523 841 916 741 602 61 786 603 292 368 1486 1357 1081
0 0 0 0 0 0 0 0 0 7 3 28 357 291 365 748 869 933 939 908 941 979 1039 1579 1350 1133 1138 1148 1127 1137 820 767 675 649 568 481 857 632 1155 1149 978 992 941 817 329 968 1070 1460 1459
0 0 0 0 0 0 0 0 0 207 635 571 488 488 732 842 756 756 1021 934 1047 1210 1322 1681 1797 1508 1325 1226 1335 1347 1222 1182 944 713 719 694 620 901 699 989 1237 1166 1058 1061 904 941 965 975 1663
0 0 0 0 0 0 0 0 0 195 342 407 237 276 534 1075 858 723 1746 932 951 1456 1544 1669 1987 1925 1802 1607 1443 1399 1444 1268 1368 1145 820 673 849 739 644 571 805 950 1149 1239 1372 1069 859 880 1282
0 0 0 0 0 6 0 0 0 119 426 164 90 256 358 1052 1362 1290 1769 1854 1180 1105 1361 1987 1948 2299 2215 2157 1991 1856 1499 1593 1519 1330 1183 771 641 688 900 817 630 785 977 1457 1513 1142 864 963 991
0 0 0 0 0 0 0 0 20 415 604 588 135 160 218 1093 1152 1266 1181 1765 1328 1419 1227 1589 2121 2145 2452 2588 2594 2401 2247 1836 1705 1579 1439 1250 1073 907 672 819 998 767 767 969 1230 1370 1195 1025 988
0 0 0 0 0 0 0 0 7 272 142 1130 987 425 941 805 911 1051 983 953 1483 1479 1199 56 225 2041 2289 2490 2486 2571 2529 2555 2361 2146 1975 1879 1470 1318 977 723 808 981 960 783 830 913 1285 1407 1216
CIN
-108 -49 -82 -416 -237 -168 -74 -38 -58 -33 -42 -32 -33 -74 -58 -84 -81 -65 -93 -75 -82 -14 -0 -0 -0 -0 -4 -9 -9 -14 -12 -7 -0 -5 -17 -20 -14 -9 -10 -18 -14 -9 -6 -0 -0 -0 -0 -0 -0
-54 -62 -400 -168 -62 -87 -35 -21 -14 -23 -36 -35 -76 -85 -107 -116 -134 -120 -77 -126 -92 -26 -0 -0 -0 -0 -0 -0 -0 -3 -22 -20 -33 -33 -34 -22 -26 -27 -14 -3 -6 -5 -1 -0 -0 -0 -0 -0 -0
-33 -236 -161 -201 -144 -81 -17 -17 -22 -36 -14 -29 -52 -73 -121 -105 -103 -102 -59 -106 -87 -43 -5 -0 -0 -0 -0 -0 -0 -0 -1 -7 -13 -19 -19 -11 -18 -21 -2 -0 -0 -0 -0 -0 -0 -0 -0 -0 -0
-62 -104 -131 -102 -6 -25 -47 -70 -21 -41 -26 -28 -30 -79 -101 -75 -130 -103 -107 -64 -72 -39 -7 -0 -0 -0 -0 -0 -0 -0 -3 -1 -2 -6 -0 -3 -3 -1 -0 -0 -0 -0 -0 -0 -0 -0 -0 -0 -2
-282 -296 -47 -37 -28 -57 -117 -81 -49 -49 -134 -135 -37 -81 -84 -72 -127 -156 -91 -78 -75 -35 -11 -0 -0 -0 -0 -0 -0 -0 -1 -0 -0 -0 -7 -1 -0 -0 -0 -0 -0 -0 -0 -0 -0 -0 -0 -0 -1
-118 -206 -20 -12 -10 -12 -58 -50 -60 -85 -48 -22 -27 -25 -35 -108 -145 -107 -80 -106 -88 -66 -18 -0 -0 -0 -0 -0 -0 -0 -0 -0 -0 -0 -0 -0 -0 -0 -0 -0 -0 -0 -0 -0 -1 -0 -0 -0 -6
-165 -42 -15 -16 -31 -25 -16 -44 -56 -46 -67 -43 -88 -63 -54 -79 -117 -117 -105 -123 -77 -41 -18 -9 -0 -0 -0 -0 -0 -0 -0 -0 -0 -0 -0 -0 -0 -0 -0 -0 -0 -0 -0 -0 -0 -0 -0 -0 -0
-142 -44 -9 -29 -30 -30 -8 -21 -16 -82 -123 -176 -140 -95 -104 -97 -86 -110 -10 -143 -81 -54 -27 -9 -1 -2 -0 -0 -0 -0 -0 -0 -0 -7 -2 -0 -0 -0 -0 -0 -0 -0 -0 -0 -0 -2 -0 -2 -3
-56 -34 -21 -32 -56 -42 -20 -81 -87 -132 -194 -141 -222 -94 -51 -109 -19 -21 -6 -17 -97 -33 -29 -13 -5 -1 -4 -5 -12 -26 -5 -7 -16 -4 -0 -0 -1 -0 -4 -11 -3 -0 -1 -1 -0 -0 -3 -5 -12
-14 -7 -17 -15 -29 -59 -42 -91 -122 -167 -167 -185 -201 -94 -43 -27 -17 -30 -9 -28 -116 -95 -60 -49 -37 -64 -81 -89 -69 -39 -46 -61 -92 -85 -10 -12 -7 -5 -9 -12 -6 -4 -3 -4 -8 -0 -1 -7 -37
-8 -11 -40 -28 -37 -38 -37 -29 -32 -224 -198 -303 -241 -163 -44 -16 -6 -27 -27 -37 -59 -173 -109 -99 -85 -8 -18 -142 -65 -56 -43 -62 -91 -81 -53 -47 -16 -20 -39 -28 -41 -41 -28 -24 -13 -6 -9 -27 -49
-0 -0 -57 -46 -32 -30 -43 -46 -53 -112 -30 -40 -99 -95 -70 -77 -91 -161 -63 -76 -64 -41 -159 -126 -131 -170 -0 -180 -91 -130 -0 -84 -59 -83 -30 -29 -27 -64 -38 -55 -49 -59 -58 -39 -43 -52 -79 -49 -90
-0 -0 -0 -57 -1 -27 -25 -55 -72 -60 -130 -32 -98 -75 -64 -53 -25 -117 -133 -87 -77 -68 -56 -155 -120 -124 -137 -128 -103 -132 -0 -0 -83 -68 -36 -18 -40 -215 -74 -184 -114 -14 -18 -16 -81 -80 -75 -101 -48
-0 -0 -4 -21 -23 -10 -62 -59 -39 -73 -54 -62 -61 -100 -73 -44 -23 -82 -79 -97 -110 -84 -51 -40 -81 -116 -100 -130 -118 -115 -145 -0 -12 -41 -25 -23 -65 -131 -59 -84 -0 -161 -30 -28 -23 -73 -60 -41 -32
-0 -0 -0 -4 -0 -9 -56 -48 -100 -147 -76 -90 -79 -63 -140 -44 -47 -55 -95 -128 -128 -84 -57 -73 -67 -118 -97 -155 -121 -130 -22 -32 -59 -93 -59 -48 -58 -61 -265 -7 -45 -49 -56 -44 -15 -18 -46 -23 -40
-0 -0 -0 -0 -0 -0 -0 -0 -49 -177 -133 -92 -99 -71 -70 -67 -69 -39 -78 -112 -103 -77 -92 -74 -75 -107 -98 -142 -64 -122 -41 -44 -51 -38 -59 -66 -38 -80 -67 -125 -34 -38 -31 -59 -77 -45 -40 -24 -46
-0 -0 -0 -0 -0 -0 -0 -0 -48 -147 -145 -119 -104 -91 -90 -96 -100 -82 -59 -131 -116 -119 -133 -143 -85 -75 -145 -118 -59 -95 -60 -43 -57 -23 -11 -51 -34 -20 -101 -167 -204 -59 -26 -32 -55 -42 -16 -124 -115
-0 -2 -0 -0 -0 -0 -0 -0 -18 -67 -83 -99 -102 -107 -100 -79 -157 -117 -120 -80 -119 -121 -111 -103 -98 -76 -109 -84 -80 -79 -42 -12 -48 -21 -27 -44 -20 -16 -16 -44 -60 -48 -27 -21 -72 -34 -32 -27 -27
-0 -0 -0 -0 -0 -0 -0 -0 -0 -40 -69 -93 -80 -116 -103 -115 -154 -159 -138 -111 -115 -86 -111 -117 -84 -85 -77 -106 -101 -64 -54 -25 -50 -33 -43 -37 -7 -15 -30 -36 -46 -36 -37 -27 -40 -36 -24 -59 -42
-0 -0 -0 -0 -0 -0 -0 -0 -0 -64 -66 -57 -103 -131 -131 -118 -69 -176 -166 -168 -138 -113 -117 -78 -87 -85 -92 -94 -89 -74 -54 -59 -51 -24 -23 -28 -21 -29 -60 -33 -40 -101 -53 -30 -43 -21 -30 -23 -42
-0 -0 -0 -0 -0 -0 -0 -0 -0 -0 -118 -75 -129 -112 -124 -123 -96 -115 -208 -206 -151 -191 -163 -77 -108 -91 -88 -85 -74 -53 -37 -44 -47 -54 -60 -65 -97 -42 -40 -37 -278 -133 -97 -80 -57 -32 -29 -26 -38
-0 -0 -0 -0 -0 -0 -0 -0 -0 -0 -0 -91 -89 -98 -104 -136 -68 -44 -28 -27 -169 -196 -200 -142 -117 -180 -160 -91 -86 -91 -91 -67 -73 -48 -43 -33 -47 -31 -23 -25 -44 -66 -61 -46 -49 -29 -46 -35 -39
-0 -0 -0 -0 -0 -0 -0 -0 -0 -0 -0 -0 -5 -142 -99 -68 -53 -38 -29 -55 -22 -177 -260 -228 -178 -193 -180 -137 -66 -93 -105 -64 -51 -39 -34 -26 -17 -32 -24 -19 -37 -248 -64 -61 -50 -41 -42 -28 -53
-0 -0 -0 -0 -0 -0 -0 -0 -0 -0 -8 -0 -7 -15 -142 -72 -64 -39 -99 -47 -31 -29 -211 -259 -265 -232 -214 -169 -128 -68 -105 -63 -38 -30 -26 -52 -89 -47 -37 -25 -18 -228 -47 -57 -68 -75 -42 -51 -46
-0 -0 -0 -0 -0 -0 -0 -0 -3 -7 -4 -161 -318 -294 -200 -106 -72 -45 -20 -45 -23 -246 -299 -267 -273 -282 -243 -232 -211 -150 -146 -80 -57 -60 -28 -61 -46 -55 -29 -20 -18 -13 -53 -54 -108 -60 -51 -63 -41
-0 -0 -0 -0 -0 -0 -0 -0 -0 -244 -176 -125 -176 -209 -236 -254 -134 -57 -54 -101 -88 -272 -326 -280 -289 -259 -255 -227 -212 -171 -126 -83 -55 -41 -63 -73 -53 -34 -34 -39 -24 -13 -57 -55 -73 -56 -45 -53 -49
-0 -0 -0 -0 -0 -0 -0 -0 -0 -139 -97 -62 -63 -133 -93 -260 -71 -97 -119 -89 -106 -248 -269 -307 -298 -277 -251 -243 -240 -162 -179 -139 -85 -46 -37 -60 -27 -19 -10 -42 -55 -31 -51 -47 -34 -36 -61 -117 -66
-0 -0 -0 -0 -0 -6 -0 -0 -0 -193 -299 -342 -231 -201 -235 -342 -164 -72 -83 -254 -295 -192 -201 -171 -218 -195 -215 -181 -208 -194 -140 -166 -114 -70 -39 -129 -103 -60 -42 -27 -16 -60 -44 -17 -13 -16 -45 -61 -67
-0 -0 -0 -0 -0 -0 -0 -0 -128 -165 -273 -314 -117 -525 -511 -253 -159 -160 -279 -175 -202 -130 -131 -202 -198 -197 -108 -136 -89 -61 -158 -153 -145 -125 -95 -75 -64 -70 -59 -37 -14 -32 -82 -48 -25 -24 -17 -30 -64
-0 -0 -0 -0 -5 -0 -0 -0 -110 -156 -307 -232 -342 -371 -293 -293 -211 -203 -228 -90 -78 -133 -72 -2 -327 -18 -64 -106 -201 -54 -32 -77 -78 -65 -85 -59 -64 -40 -63 -65 -68 -32 -21 -63 -38 -42 -28 -12 -15
Wind_Speed
12 11 4 7 4 7 5 11 15 17 10 9 16 12 11 10 13 12 15 18 21 17 11 13 16 15 14 16 13 12 16 17 18 18 18 16 15 14 11 10 10 8 7 6 5 6 7 3 1
12 6 9 nan nan nan nan 16 nan 15 10 14 16 10 5 8 6 14 11 23 23 19 12 10 14 15 17 16 16 14 16 16 16 15 16 14 13 11 11 11 12 9 7 6 5 4 5 4 2
7 9 1 6 nan nan 5 10 24 18 15 12 9 8 8 10 16 14 19 22 22 15 9 11 18 14 13 10 9 13 14 14 15 14 14 12 10 10 10 11 10 10 9 7 5 4 2 4 2
1 5 1 8 14 nan 9 13 13 20 8 5 5 4 5 12 16 19 24 24 17 16 7 18 19 14 10 7 7 11 14 14 16 14 13 10 8 10 10 10 9 8 7 5 4 5 2 3 4
6 6 3 6 9 11 11 12 20 21 16 nan 4 11 6 6 20 27 23 20 20 16 8 14 17 11 12 14 13 13 14 15 17 14 12 9 7 8 9 9 10 9 8 4 2 3 2 3 4
9 7 2 2 3 18 13 14 18 25 22 18 20 10 5 21 25 23 20 19 19 16 11 10 14 12 15 15 15 16 13 16 17 13 10 7 6 7 10 11 10 9 7 4 3 3 2 3 4
6 6 5 7 6 3 10 7 16 18 17 12 18 14 9 17 18 21 18 17 17 14 8 9 7 10 21 12 16 12 14 17 16 11 6 6 6 9 12 13 11 7 6 6 6 6 5 5 8
11 3 9 6 6 4 4 13 17 15 15 21 21 15 nan 26 21 17 16 13 12 12 9 7 4 4 4 5 15 13 17 14 11 6 6 5 6 8 9 10 7 5 8 6 5 7 9 8 10
6 nan 9 3 8 10 9 12 9 9 18 18 nan 14 13 23 20 20 12 nan 10 11 10 9 6 4 4 4 9 13 15 8 4 2 3 2 4 1 5 7 4 4 9 9 6 9 11 8 11
nan nan nan 1 9 13 16 15 17 11 11 12 15 11 11 24 21 22 17 14 12 14 12 9 6 7 10 7 6 1 4 nan nan nan 5 4 1 2 3 2 8 5 9 12 8 10 10 12 9
nan nan nan nan 13 13 14 17 16 18 15 20 20 17 15 24 15 18 16 18 20 14 11 10 8 nan nan nan 2 nan 6 1 nan nan nan 2 7 6 8 6 8 9 13 12 12 8 9 12 10
nan nan nan nan nan 16 18 16 13 20 15 19 18 18 15 21 18 18 18 19 16 14 12 10 10 nan nan nan 10 nan nan nan nan nan 3 6 7 6 14 6 9 nan 14 17 12 6 9 16 13
nan nan nan nan nan 19 nan 16 20 13 16 21 16 14 17 20 17 16 15 14 15 14 12 11 10 10 nan 3 4 nan nan nan nan nan 5 5 7 nan nan nan nan nan nan 14 10 10 12 10 11
nan nan nan nan nan nan 23 20 12 17 23 31 32 22 25 25 25 16 14 15 15 18 17 12 11 11 4 1 2 3 nan nan nan 2 3 8 6 7 8 nan nan nan nan 12 8 8 9 nan 9
nan nan nan nan nan nan 22 14 15 21 26 28 33 28 25 25 21 24 23 21 18 15 14 13 11 8 5 0 2 2 4 nan 5 nan 1 11 8 8 nan nan nan 11 13 13 10 8 6 10 11
nan nan nan nan nan nan nan nan 12 23 24 28 33 34 33 29 29 25 22 20 16 15 14 12 9 7 5 2 2 1 2 4 6 7 nan 6 7 8 4 nan 5 10 11 11 8 6 4 6 11
nan nan nan nan nan nan nan nan 16 29 25 27 31 36 36 32 33 28 28 24 20 18 16 16 12 10 8 3 4 2 3 5 6 7 6 4 6 9 7 6 4 6 9 8 7 5 4 15 5
nan nan nan nan nan nan nan nan nan 23 27 32 26 30 29 34 39 34 28 23 19 17 15 15 12 10 6 1 4 5 5 4 4 4 4 6 6 5 7 3 7 2 7 15 12 2 2 5 7
nan nan nan nan nan nan nan nan nan 23 26 33 22 24 28 30 32 31 28 22 20 18 15 16 16 11 6 4 4 5 11 7 4 6 5 6 7 10 8 6 7 13 16 11 10 5 7 3 5
nan nan nan nan nan nan nan nan nan nan 33 35 28 28 26 22 28 30 28 26 21 21 21 18 15 10 10 4 4 4 4 6 4 7 8 5 5 9 9 12 nan 2 12 14 8 7 8 7 4
nan nan nan nan nan nan nan nan nan nan nan 26 27 38 32 28 29 27 31 30 25 23 22 18 16 17 12 9 7 6 8 9 8 7 3 3 2 7 9 9 nan 5 13 10 7 7 8 7 6
nan nan nan nan nan nan nan nan nan nan nan nan nan 36 42 32 26 27 29 31 32 27 22 21 19 14 12 11 9 8 7 6 2 6 5 4 3 6 8 6 10 3 4 6 9 7 9 11 5
nan nan nan nan nan nan nan nan nan nan nan nan nan 38 39 36 29 29 30 32 29 28 26 21 22 17 9 10 8 8 9 8 6 5 5 3 4 7 7 8 6 nan 4 nan 5 4 6 11 8
nan nan nan nan nan nan nan nan nan nan nan nan nan nan 36 31 29 27 23 24 26 26 27 26 26 21 13 9 7 8 9 11 9 8 4 4 5 7 7 9 10 nan 6 6 1 4 1 7 10
nan nan nan nan nan nan nan nan nan nan nan nan 40 42 17 17 30 21 20 19 29 26 25 24 23 23 21 20 12 10 7 9 9 9 7 6 5 8 8 10 10 9 9 7 2 2 3 8 9
nan nan nan nan nan nan nan nan nan 20 27 34 45 36 34 32 24 23 5 18 18 26 30 31 26 22 21 20 18 13 13 8 8 7 10 9 6 6 8 9 10 7 10 11 9 5 5 7 13
nan nan nan nan nan nan nan nan nan 28 29 27 29 28 39 45 39 52 26 10 8 21 19 24 25 22 19 19 16 16 12 14 13 10 9 11 11 11 9 12 12 9 10 14 15 9 5 5 10
nan nan nan nan nan nan nan nan nan 19 19 23 nan 36 37 33 47 19 6 6 8 23 26 17 14 21 25 19 13 15 18 13 15 15 11 10 9 12 14 13 14 12 11 13 15 14 10 9 14
nan nan nan nan nan nan nan nan nan 23 24 32 33 27 42 36 35 36 32 23 28 31 36 19 10 25 22 19 22 5 9 14 13 15 13 13 13 12 15 17 16 15 10 11 14 14 12 12 12
nan nan nan nan nan nan nan nan nan 35 38 41 37 33 26 36 35 38 31 39 36 29 28 nan 22 10 13 25 33 13 5 8 10 12 15 14 14 12 12 15 17 14 13 12 12 13 12 12 12
Wind_Direction
81 75 109 147 252 269 349 30 7 0 26 17 355 25 12 21 23 36 352 355 344 341 343 330 325 316 327 331 333 299 300 304 305 316 310 296 286 287 297 305 322 330 328 320 321 323 298 267 214
131 165 192 nan nan nan nan 128 nan 328 345 347 331 359 310 22 327 329 337 349 342 346 341 314 324 323 320 318 323 313 310 307 307 305 302 296 290 299 311 323 340 331 325 322 324 334 292 334 14
143 175 285 44 nan nan 85 185 299 314 309 336 7 356 337 353 322 343 342 348 343 352 6 357 329 338 324 317 323 312 307 305 303 311 305 306 308 316 320 339 337 335 337 321 313 309 324 352 6
179 244 48 7 36 nan 310 76 297 303 301 184 103 77 23 9 330 339 343 345 343 344 1 357 339 341 356 334 328 321 312 307 305 315 319 326 332 317 334 337 327 338 331 302 302 315 285 6 64
38 21 319 356 14 359 89 29 325 279 310 nan 65 348 11 326 311 324 343 342 347 356 25 14 10 356 354 347 340 329 324 312 304 310 324 337 333 327 329 331 331 338 318 285 341 331 305 38 78
215 313 274 7 330 336 13 350 287 293 300 309 316 338 49 327 327 339 343 344 352 358 17 15 4 345 343 344 327 309 306 300 295 302 328 341 327 326 325 334 344 347 339 349 349 34 8 65 59
357 288 4 8 13 326 326 329 302 305 304 319 346 321 6 347 348 342 342 344 349 351 8 2 11 349 330 318 347 338 302 292 281 286 326 339 329 340 338 341 359 5 5 25 6 38 14 61 70
87 340 357 27 7 352 18 332 325 318 348 5 346 344 nan 350 350 328 352 340 350 349 3 357 352 2 326 314 336 333 337 308 263 272 346 350 329 349 350 346 10 23 50 46 43 46 44 47 74
354 nan 335 21 355 2 355 334 10 354 354 19 nan 15 63 336 339 319 342 nan 2 10 4 357 47 8 334 275 311 335 341 320 252 259 309 219 223 56 27 11 40 81 77 61 54 56 67 63 74
nan nan nan 92 11 347 341 336 6 351 12 37 43 30 347 339 345 339 341 5 22 18 9 0 357 343 324 289 256 278 57 nan nan nan 197 209 29 77 94 159 133 123 101 97 84 79 75 74 79
nan nan nan nan 353 349 340 343 5 347 32 47 26 26 356 347 352 349 350 1 18 23 17 12 359 nan nan nan 139 nan 177 105 nan nan nan 122 196 187 194 215 178 164 142 127 112 133 118 103 67
nan nan nan nan nan 5 12 1 11 7 26 21 11 352 360 2 14 11 8 11 12 13 25 10 7 nan nan nan 69 nan nan nan nan nan 173 216 243 228 209 178 196 nan 135 124 115 127 95 110 85
nan nan nan nan nan 29 nan 30 31 6 358 4 359 354 9 1 15 16 14 19 7 15 13 21 359 360 nan 23 72 nan nan nan nan nan 200 245 247 nan nan nan nan nan nan 115 130 101 121 108 92
nan nan nan nan nan nan 17 18 16 14 354 11 7 2 359 9 22 6 10 23 18 8 11 11 16 4 355 35 50 59 nan nan nan 67 212 262 249 230 241 nan nan nan nan 126 133 102 108 nan 139
nan nan nan nan nan nan 351 10 26 12 7 11 20 10 14 18 19 23 8 16 358 9 4 4 17 4 16 258 52 343 20 nan 6 nan 359 260 273 278 nan nan nan 160 140 130 119 104 167 147 153
nan nan nan nan nan nan nan nan 25 21 14 18 22 29 24 32 23 20 21 26 4 355 355 357 15 4 1 351 234 143 322 338 344 340 nan 255 264 297 337 nan 125 136 154 143 128 182 182 177 179
nan nan nan nan nan nan nan nan 40 25 31 27 28 29 28 24 27 29 20 17 15 9 350 358 2 357 18 3 278 309 327 333 338 315 298 288 259 300 352 354 347 169 159 144 154 191 198 169 84
nan nan nan nan nan nan nan nan nan 37 29 24 21 23 22 12 22 20 16 17 7 3 3 352 352 354 9 169 238 246 275 257 307 336 290 305 257 290 288 318 319 263 182 193 173 139 193 358 359
nan nan nan nan nan nan nan nan nan 43 34 14 22 19 23 19 20 17 11 11 1 358 357 351 349 345 330 229 271 260 292 255 295 338 358 276 269 285 283 280 266 266 223 191 163 219 274 259 329
nan nan nan nan nan nan nan nan nan nan 31 18 16 17 14 11 8 18 10 2 10 8 3 360 342 326 343 336 290 277 244 204 253 312 346 332 238 280 281 291 nan 233 218 198 176 186 208 220 214
nan nan nan nan nan nan nan nan nan nan nan 7 23 9 15 2 353 3 8 6 6 12 7 358 346 354 342 335 287 246 230 223 229 254 293 6 312 259 277 306 nan 244 226 194 202 184 250 253 227
nan nan nan nan nan nan nan nan nan nan nan nan nan 4 2 6 355 353 355 0 3 9 6 6 353 338 348 318 310 287 280 274 238 227 244 273 330 275 296 323 327 359 236 239 241 206 243 242 249
nan nan nan nan nan nan nan nan nan nan nan nan nan 0 354 354 357 3 356 357 0 3 1 1 355 351 333 339 321 314 285 277 250 245 284 250 218 274 288 303 310 nan 261 nan 249 237 202 228 228
nan nan nan nan nan nan nan nan nan nan nan nan nan nan 347 352 359 357 350 347 356 0 2 1 357 351 334 338 321 318 318 289 273 265 268 318 258 259 278 289 286 nan 280 285 220 317 125 221 210
nan nan nan nan nan nan nan nan nan nan nan nan 268 271 279 343 346 337 339 343 349 356 360 359 3 7 352 345 331 317 298 289 294 279 271 270 227 247 277 275 279 268 272 281 304 303 203 169 188
nan nan nan nan nan nan nan nan nan 238 257 267 274 285 266 242 210 191 252 339 350 360 0 352 355 5 6 358 354 344 323 290 281 288 264 257 269 239 271 287 271 284 278 276 270 233 203 177 172
nan nan nan nan nan nan nan nan nan 221 244 260 266 280 284 270 247 213 118 20 81 338 357 355 342 349 357 2 355 340 330 328 321 300 271 266 262 264 262 267 264 271 263 271 265 249 247 216 194
nan nan nan nan nan nan nan nan nan 234 245 256 nan 284 283 293 297 329 175 9 276 294 313 330 329 345 337 338 345 347 334 332 318 305 300 283 273 274 271 267 267 265 267 277 262 251 242 235 225
nan nan nan nan nan nan nan nan nan 305 294 272 269 266 291 289 281 283 278 268 288 300 322 298 307 332 320 314 307 300 330 322 313 310 309 305 292 276 271 275 271 274 269 267 259 254 244 244 232
nan nan nan nan nan nan nan nan nan 263 268 278 274 281 281 278 294 289 295 298 289 298 277 nan 240 254 274 276 276 271 282 313 323 306 308 301 301 293 282 269 270 265 263 249 262 260 258 246 237